Temperature
21 22 21 20 19 19 19 18 18 18 18 18 18 18 17 17 17 17 16 16 16 16 16 16 15 15 15 15 15 15 15 14 14 14 14 13 13 13 13 13 13 13 13
21 21 20 19 19 18 18 18 18 18 18 18 17 17 17 17 16 16 16 16 16 16 15 15 15 15 14 14 14 14 14 14 13 13 13 13 13 13 13 13 13 13 13
20 20 20 19 18 17 17 17 17 17 17 17 17 17 16 16 16 16 16 15 15 15 15 15 14 14 14 14 14 14 14 13 13 13 13 13 13 13 13 12 12 12 12
20 19 19 18 17 17 17 17 17 17 17 17 16 16 16 16 16 15 15 15 15 15 15 14 14 14 14 14 14 14 13 13 12 12 12 12 12 12 12 12 12 12 12
19 19 18 18 17 17 16 16 16 17 16 16 16 16 16 15 15 15 15 14 14 14 14 14 14 14 14 14 14 13 13 12 12 12 12 12 12 12 12 12 12 12 12
19 18 18 17 17 16 16 16 16 16 16 16 16 16 15 15 15 15 14 14 14 14 14 14 14 14 14 14 13 13 12 12 12 12 12 12 12 11 12 12 12 12 12
18 18 17 17 17 16 16 16 16 16 16 16 15 15 15 15 15 14 14 14 14 14 13 13 14 14 14 13 13 13 12 12 11 11 12 11 11 11 11 11 11 11 11
18 17 17 17 16 16 16 16 16 16 15 15 15 15 15 14 14 14 14 14 13 13 13 13 13 13 13 13 13 12 12 11 11 11 11 11 11 11 11 11 11 11 11
17 17 17 16 16 16 16 16 16 15 15 15 15 15 15 14 14 14 13 13 13 13 12 12 13 13 13 13 13 12 12 11 11 11 11 11 11 11 11 11 11 11 11
17 17 16 16 16 16 16 15 15 15 15 15 15 15 14 14 14 13 13 13 13 12 12 12 12 12 12 13 12 12 11 11 11 11 11 11 11 11 10 10 10 10 10
16 16 16 16 16 15 15 15 15 15 15 15 14 14 14 14 13 13 13 13 12 12 12 12 12 12 12 12 12 11 11 11 11 11 11 11 10 10 10 10 10 10 10
16 16 16 16 15 15 15 15 15 15 14 14 14 14 14 13 13 13 12 12 12 12 11 11 11 11 12 12 12 11 11 11 11 11 11 10 10 10 10 10 10 10 10
15 15 15 15 15 15 15 15 14 14 14 14 14 14 13 13 13 12 12 12 11 11 11 11 11 11 11 11 11 11 11 10 10 10 10 10 10 10 10 10 10 10 10
15 15 15 15 15 15 14 14 14 14 14 14 14 13 13 13 12 12 12 11 11 11 11 11 11 11 10 11 11 11 11 10 10 10 10 10 10 10 10 10 10 10 10
15 15 15 15 14 14 14 14 14 14 14 13 13 13 13 13 12 12 12 11 11 11 11 11 10 10 10 10 10 10 10 10 10 10 10 10 10 10 10 9 9 9 10
14 14 14 14 14 14 14 14 14 14 13 13 13 13 13 13 12 12 11 11 11 11 11 10 10 10 10 10 10 10 10 10 10 10 10 10 10 10 10 9 9 9 9
14 14 14 14 14 14 14 14 13 13 13 13 13 13 13 12 12 12 11 11 11 11 10 10 10 10 10 10 10 10 10 10 10 10 10 10 10 10 10 10 9 9 9
14 14 14 13 13 13 13 13 13 13 13 13 13 12 12 12 12 12 11 11 11 10 10 10 10 10 10 10 10 10 10 10 10 10 10 10 10 10 10 10 9 9 9
13 13 13 13 13 13 13 13 13 13 13 13 13 12 12 12 12 12 11 11 11 10 10 10 10 10 10 10 10 10 10 10 10 10 10 9 9 10 10 10 9 9 9
13 13 13 13 13 13 13 13 13 13 12 12 12 12 12 12 12 11 11 11 11 10 10 10 10 10 10 10 10 9 9 9 10 10 10 10 9 9 10 10 10 9 9
12 12 12 12 12 12 12 12 12 12 12 12 12 12 12 12 12 11 11 11 10 10 10 10 10 10 10 9 9 9 9 9 9 9 9 9 9 9 9 9 9 9 9
12 12 11 12 12 12 12 12 12 12 12 12 12 12 12 12 11 11 11 11 10 10 10 10 10 9 9 9 9 9 9 9 9 9 9 9 9 9 9 9 9 9 9
11 11 11 11 11 11 11 11 11 11 11 11 11 12 12 12 11 11 11 11 10 10 10 10 10 9 9 9 9 10 9 9 9 9 9 9 9 9 9 10 9 9 9
11 11 11 10 11 11 11 11 11 11 11 11 11 11 11 11 11 11 11 11 10 10 10 10 10 10 10 9 9 10 10 10 10 9 9 9 9 9 9 9 9 9 9
10 10 10 10 10 10 11 11 11 11 11 11 11 11 11 11 11 11 11 11 10 10 10 10 10 10 10 10 10 10 10 10 10 10 9 9 9 9 9 9 9 9 9
10 10 9 10 10 10 10 10 10 10 10 10 11 11 11 11 11 11 11 11 11 10 10 10 10 10 10 10 10 10 10 10 10 10 10 10 9 9 9 9 9 9 9
Wind_Speed
8 15 22 21 21 21 21 21 21 21 20 19 18 18 18 18 18 18 18 18 18 18 17 17 17 17 17 17 17 17 17 17 17 17 16 16 16 16 16 16 17 16 19
9 15 23 21 21 21 20 21 21 21 20 20 19 19 18 18 18 18 18 18 18 18 17 18 18 18 18 17 16 16 16 16 15 16 17 16 16 17 18 18 18 16 19
10 15 21 20 20 20 20 20 20 21 21 20 19 19 19 19 18 18 18 18 18 17 18 18 18 18 18 17 16 15 14 13 12 12 14 14 15 17 17 17 18 18 18
9 13 19 20 20 20 20 20 21 21 21 20 19 19 19 19 19 18 18 18 18 18 18 18 18 18 17 16 15 14 12 11 9 10 11 13 14 16 17 17 17 18 18
6 11 18 22 21 20 20 20 21 21 21 20 20 20 20 20 19 18 18 18 18 18 18 18 18 17 16 16 14 13 11 9 8 11 15 15 14 16 17 17 16 17 18
5 8 17 23 22 21 20 20 21 22 22 21 20 20 20 19 19 18 18 18 18 18 18 18 17 17 16 15 13 11 9 7 8 13 15 14 13 15 16 16 16 17 17
4 6 15 22 22 21 21 21 21 22 22 22 21 21 20 19 19 18 18 19 19 18 18 18 17 17 16 14 12 10 7 7 11 15 15 13 13 14 15 15 16 16 16
3 5 12 20 21 21 21 21 22 22 22 22 22 21 20 20 20 19 19 19 19 18 18 18 17 16 15 13 11 8 5 6 12 14 14 13 13 14 15 15 15 15 15
2 3 8 14 18 20 20 21 22 22 22 22 22 22 21 20 20 20 20 19 18 18 18 17 17 16 14 13 10 6 4 7 10 12 13 11 13 14 14 14 13 14 14
3 4 7 11 13 14 16 19 21 22 22 23 22 22 22 21 21 20 19 19 19 18 18 17 17 15 14 12 9 4 3 5 9 13 13 11 12 12 13 12 13 13 13
4 6 7 9 11 12 14 17 18 20 22 22 21 23 22 18 18 18 19 19 19 19 18 18 17 15 14 11 8 4 1 4 11 13 12 11 11 11 12 12 11 11 11
6 7 7 8 9 10 12 13 13 15 17 18 18 20 18 17 16 17 20 20 19 18 18 18 17 16 13 10 7 5 3 6 12 13 11 11 10 11 11 11 11 10 10
8 8 7 8 8 9 8 9 8 10 12 15 18 19 16 15 14 15 14 16 17 17 15 16 15 12 11 10 8 6 4 7 10 13 11 10 9 10 10 10 9 8 8
8 9 8 8 8 9 8 8 9 8 9 10 15 18 14 9 10 11 10 11 12 12 12 12 9 9 10 11 9 6 5 7 10 13 12 11 9 9 9 9 8 7 7
10 10 9 9 9 9 8 8 9 9 10 11 13 16 15 11 11 11 10 11 11 12 11 8 7 7 7 8 7 6 6 7 10 12 12 11 9 9 8 7 6 6 5
10 10 9 10 10 9 8 8 9 10 10 12 11 15 18 14 12 11 10 9 9 12 12 9 7 7 5 5 5 5 6 8 9 12 13 12 10 8 7 6 5 4 4
11 10 10 10 10 10 10 9 8 9 11 11 11 15 18 17 14 12 11 10 9 13 12 9 7 6 5 5 5 5 5 7 8 10 12 12 10 9 7 6 5 4 2
9 10 10 10 10 10 9 9 7 9 11 11 12 13 17 19 17 13 11 10 11 11 8 6 7 5 5 5 4 3 4 5 6 8 10 10 10 9 8 7 5 4 3
9 9 10 10 10 10 10 8 8 8 9 11 12 12 15 18 19 13 11 10 12 9 7 7 6 6 6 5 4 4 3 3 4 5 6 8 9 10 9 8 7 5 4
8 8 8 9 10 10 8 7 6 7 7 9 11 12 16 16 18 15 11 13 12 9 8 8 8 6 6 6 5 4 3 3 3 4 5 6 8 9 9 9 8 7 5
7 7 8 8 8 8 8 8 8 7 7 8 10 14 16 17 18 15 12 13 12 10 10 10 7 8 6 5 5 3 1 2 3 4 4 5 6 8 9 9 9 8 7
8 7 8 8 8 8 7 8 8 8 7 7 9 12 16 17 17 15 15 13 12 10 11 10 9 6 5 6 6 5 2 1 3 4 4 4 5 6 7 8 8 7 7
7 7 7 8 9 8 8 7 7 7 6 6 9 11 13 17 17 15 16 14 13 12 11 11 10 9 8 7 6 5 4 4 3 3 4 4 5 4 5 7 8 8 7
6 6 7 9 9 9 8 8 10 10 9 8 9 10 12 16 17 16 16 15 14 12 12 12 10 8 9 8 6 3 3 4 4 2 3 4 5 5 5 5 6 7 8
4 4 6 8 9 9 9 9 10 9 8 7 9 11 12 14 16 17 16 14 15 12 13 13 11 11 8 8 6 4 3 1 3 3 3 3 3 4 4 5 5 7 8
4 4 6 7 9 9 9 10 10 10 10 10 11 12 12 11 13 16 16 14 13 13 14 13 12 13 10 8 6 5 5 4 4 4 3 4 4 4 4 4 5 6 7
Wind_Direction
127 149 161 164 163 161 159 157 154 150 148 146 144 140 136 133 129 127 124 122 120 119 116 114 110 107 103 99 96 93 91 90 88 87 87 86 84 81 80 79 76 70 72
133 150 161 164 164 163 162 159 155 152 151 149 148 144 140 137 134 131 129 126 124 122 118 116 112 110 106 103 100 98 96 95 96 93 88 85 84 83 80 77 79 76 74
130 147 162 164 166 165 164 161 157 155 154 152 150 148 144 141 138 135 132 129 127 125 122 118 114 110 107 105 103 101 101 101 101 95 91 88 84 85 83 80 79 77 76
131 146 164 166 168 168 167 164 160 158 157 155 154 152 149 145 142 139 135 132 129 126 122 119 116 112 110 107 106 105 104 103 97 87 86 86 84 85 84 82 82 79 77
131 149 161 166 171 172 172 169 164 162 160 159 157 155 152 149 145 142 138 134 131 127 124 121 118 116 113 111 110 110 107 98 83 86 85 83 83 86 84 84 83 81 79
129 148 158 166 173 175 175 173 169 165 163 161 159 156 153 150 147 144 141 136 133 130 127 124 121 119 116 115 115 114 105 87 76 85 85 85 85 88 87 86 85 83 79
140 148 159 168 175 178 178 176 173 169 167 163 160 157 154 152 148 145 142 139 137 134 131 127 125 122 119 119 119 117 100 73 93 89 85 86 90 92 91 88 86 83 80
153 156 159 171 175 180 181 178 175 171 169 165 161 158 155 152 149 146 144 143 141 138 136 133 130 127 124 123 123 118 80 63 101 99 91 89 95 95 92 89 87 84 82
155 166 164 173 178 179 180 180 178 174 171 166 163 159 156 154 152 150 148 147 145 143 140 138 135 131 129 127 127 119 73 73 93 104 99 94 99 98 95 90 89 86 84
186 190 183 176 178 178 179 179 178 176 173 169 164 158 154 153 153 151 149 150 149 147 144 141 138 135 132 132 134 129 83 83 99 98 100 102 104 103 100 96 93 90 87
207 199 195 182 179 176 177 181 177 176 174 168 162 155 151 152 151 150 148 151 151 149 147 144 141 138 135 139 147 161 176 116 104 98 101 110 111 109 106 102 97 93 89
222 211 200 189 183 180 180 176 176 176 173 169 164 160 160 155 154 151 150 152 152 151 149 147 144 143 143 150 164 185 197 138 114 107 111 120 119 116 111 107 103 97 92
227 218 209 198 188 182 181 177 176 174 173 171 168 169 161 149 147 144 149 150 151 151 148 146 150 162 163 161 173 194 183 122 114 114 119 125 126 123 118 114 108 103 98
234 224 211 200 193 188 182 184 180 176 176 174 172 171 160 154 152 153 154 158 159 159 151 158 169 174 162 161 176 169 135 113 116 116 123 127 129 130 126 122 118 112 103
232 228 215 204 198 194 186 185 183 180 180 176 175 173 160 157 158 158 159 163 163 158 158 168 174 165 160 166 168 151 138 123 122 122 128 131 129 132 131 131 127 121 113
229 223 216 207 201 195 192 188 184 183 182 175 175 172 162 161 162 161 161 164 162 160 166 173 171 158 160 152 154 146 139 133 128 129 134 138 136 136 136 141 138 134 129
230 219 214 208 205 197 193 193 186 183 178 177 176 173 167 164 165 164 161 164 161 162 167 169 162 152 148 147 154 151 137 136 138 140 143 147 150 152 152 153 154 153 154
234 218 211 211 207 200 193 194 188 184 180 177 175 176 172 166 165 164 161 164 161 163 164 162 154 147 145 150 153 148 134 132 140 147 148 152 155 156 163 169 172 175 178
242 221 208 203 202 201 195 193 191 187 184 178 174 176 175 168 166 163 161 163 160 162 162 162 154 151 153 155 151 142 138 146 154 151 152 157 157 157 162 170 177 185 196
246 227 210 198 199 201 192 186 186 183 185 182 176 174 175 171 167 163 161 163 162 162 163 161 156 154 154 154 146 137 143 154 161 163 166 157 162 166 167 172 178 187 198
240 226 213 203 200 197 189 183 183 183 185 186 179 174 174 171 168 165 163 164 164 166 167 164 158 157 157 146 128 127 137 178 178 179 172 165 172 177 176 179 181 183 193
235 223 217 208 202 200 195 185 184 182 185 191 181 178 174 172 171 171 165 166 165 165 168 169 158 158 165 155 148 143 155 224 242 200 180 181 184 174 178 184 184 186 188
234 222 224 213 205 204 197 188 186 181 181 193 186 179 178 172 171 172 170 167 168 169 172 172 167 162 166 170 172 163 159 191 194 219 203 189 186 185 186 187 190 193 194
240 226 226 215 209 204 191 193 191 194 193 200 188 181 181 177 172 171 172 171 171 172 172 174 170 166 165 173 189 200 170 146 149 174 226 207 196 195 193 185 184 191 198
244 229 231 221 212 206 192 193 196 202 196 193 185 183 184 180 175 173 172 176 175 176 174 174 171 171 175 175 175 176 180 145 147 150 189 208 212 210 192 184 179 187 197
242 229 236 221 213 205 199 199 199 198 195 191 188 185 183 179 179 177 174 177 178 178 177 176 175 175 179 180 177 172 166 164 177 168 179 192 204 214 200 187 180 182 191
Height
1468 1468 1470 1473 1476 1479 1482 1485 1487 1490 1493 1496 1498 1500 1502 1505 1507 1508 1510 1512 1514 1515 1516 1517 1518 1519 1520 1521 1521 1522 1523 1524 1524 1524 1525 1525 1526 1526 1526 1526 1527 1527 1527
1467 1468 1470 1472 1475 1478 1481 1484 1487 1490 1493 1495 1498 1500 1502 1504 1506 1508 1510 1512 1514 1515 1516 1518 1518 1519 1520 1521 1522 1523 1524 1525 1525 1526 1526 1527 1527 1527 1527 1528 1528 1528 1528
1467 1468 1470 1472 1475 1478 1481 1484 1487 1490 1492 1495 1497 1500 1502 1504 1506 1508 1510 1512 1514 1515 1516 1518 1519 1519 1520 1521 1522 1523 1525 1526 1527 1527 1527 1528 1528 1529 1529 1529 1529 1529 1529
1467 1468 1469 1472 1475 1478 1481 1483 1486 1489 1492 1494 1497 1499 1502 1504 1506 1508 1510 1512 1513 1515 1516 1518 1519 1519 1520 1521 1523 1524 1526 1527 1528 1528 1529 1529 1529 1530 1530 1530 1530 1530 1530
1467 1468 1469 1472 1474 1477 1480 1483 1485 1488 1491 1494 1496 1499 1501 1504 1506 1508 1510 1511 1513 1515 1516 1517 1518 1519 1520 1522 1523 1525 1526 1528 1529 1529 1529 1530 1531 1531 1531 1531 1531 1531 1532
1467 1468 1469 1471 1474 1476 1479 1482 1485 1487 1490 1493 1496 1498 1501 1503 1505 1507 1509 1511 1513 1514 1516 1517 1518 1519 1521 1522 1524 1525 1527 1528 1529 1530 1530 1531 1532 1532 1532 1532 1533 1533 1533
1466 1467 1468 1470 1472 1475 1478 1481 1484 1486 1489 1492 1495 1497 1500 1502 1504 1506 1508 1510 1512 1514 1515 1517 1518 1520 1521 1523 1524 1526 1528 1529 1530 1530 1531 1532 1532 1533 1533 1534 1534 1534 1534
1465 1466 1467 1469 1471 1473 1476 1479 1482 1485 1488 1490 1493 1496 1499 1501 1503 1505 1507 1509 1512 1513 1515 1517 1518 1519 1521 1523 1525 1526 1528 1529 1530 1531 1532 1532 1533 1534 1534 1534 1535 1535 1535
1463 1464 1466 1467 1469 1471 1474 1477 1480 1483 1486 1489 1491 1495 1497 1500 1502 1504 1506 1509 1511 1513 1515 1516 1518 1519 1521 1523 1525 1527 1529 1530 1531 1531 1532 1533 1534 1534 1535 1535 1535 1535 1535
1461 1462 1464 1465 1467 1469 1471 1474 1477 1480 1483 1486 1489 1492 1495 1498 1500 1503 1505 1508 1510 1512 1514 1516 1518 1519 1521 1523 1525 1527 1529 1530 1531 1532 1533 1534 1534 1535 1535 1536 1536 1536 1536
1458 1459 1461 1462 1464 1466 1468 1471 1474 1477 1481 1484 1487 1490 1493 1496 1498 1501 1504 1507 1509 1511 1514 1515 1517 1519 1521 1523 1525 1527 1529 1531 1532 1532 1533 1534 1535 1535 1536 1536 1536 1537 1537
1455 1456 1458 1459 1460 1463 1465 1467 1470 1474 1477 1480 1483 1487 1490 1493 1496 1499 1502 1505 1508 1510 1513 1515 1517 1519 1521 1523 1525 1527 1529 1531 1532 1532 1533 1534 1535 1536 1536 1536 1537 1537 1537
1451 1452 1454 1455 1457 1458 1461 1463 1466 1469 1472 1476 1480 1483 1487 1490 1493 1496 1499 1503 1506 1509 1512 1514 1516 1518 1520 1523 1525 1527 1529 1531 1531 1532 1533 1534 1535 1536 1536 1536 1537 1537 1537
1446 1448 1449 1451 1453 1454 1456 1459 1461 1464 1467 1471 1475 1479 1483 1486 1489 1493 1496 1500 1503 1506 1510 1512 1515 1517 1520 1523 1525 1527 1529 1530 1531 1531 1532 1534 1535 1536 1536 1536 1537 1537 1537
1441 1442 1444 1446 1448 1450 1452 1454 1457 1460 1463 1466 1471 1474 1478 1482 1485 1489 1493 1497 1501 1504 1507 1511 1514 1517 1519 1522 1524 1526 1528 1529 1530 1531 1532 1533 1534 1535 1536 1536 1537 1537 1537
1436 1437 1439 1441 1443 1445 1447 1449 1451 1455 1458 1462 1465 1469 1473 1477 1481 1485 1490 1494 1498 1502 1505 1509 1512 1516 1518 1521 1523 1525 1527 1528 1529 1530 1531 1532 1533 1534 1535 1536 1536 1536 1536
1430 1431 1433 1436 1438 1440 1442 1445 1447 1449 1453 1456 1459 1464 1467 1472 1477 1481 1486 1490 1495 1499 1503 1507 1511 1514 1517 1520 1522 1524 1526 1527 1528 1529 1530 1531 1532 1533 1534 1535 1535 1535 1535
1424 1425 1427 1430 1432 1435 1437 1439 1442 1445 1448 1451 1455 1459 1463 1468 1472 1477 1481 1486 1491 1496 1500 1504 1508 1512 1515 1518 1520 1523 1525 1526 1527 1528 1529 1530 1531 1532 1533 1533 1534 1534 1534
1419 1420 1421 1424 1426 1429 1431 1434 1437 1440 1442 1446 1450 1453 1457 1462 1467 1472 1477 1482 1488 1492 1497 1501 1505 1509 1512 1515 1518 1521 1523 1524 1526 1527 1528 1529 1530 1530 1531 1532 1532 1533 1533
1414 1415 1416 1418 1420 1423 1426 1429 1432 1434 1437 1440 1443 1447 1452 1456 1462 1467 1473 1478 1483 1488 1493 1497 1502 1506 1509 1513 1516 1519 1521 1523 1524 1526 1526 1527 1528 1529 1529 1530 1530 1530 1531
1408 1409 1410 1412 1414 1417 1420 1422 1425 1428 1432 1435 1439 1442 1447 1450 1455 1462 1468 1473 1479 1484 1489 1493 1498 1502 1506 1510 1514 1517 1519 1521 1523 1524 1525 1525 1526 1527 1527 1528 1528 1528 1528
1403 1404 1405 1407 1409 1411 1414 1417 1420 1424 1427 1431 1434 1438 1441 1444 1451 1457 1462 1468 1474 1479 1485 1489 1493 1498 1502 1506 1509 1513 1516 1520 1520 1521 1522 1523 1524 1524 1525 1525 1526 1526 1525
1398 1399 1400 1401 1403 1406 1409 1413 1417 1420 1423 1426 1428 1432 1436 1441 1446 1451 1457 1463 1469 1474 1479 1484 1489 1493 1497 1502 1506 1508 1511 1513 1516 1518 1519 1520 1521 1522 1522 1523 1523 1523 1523
1393 1394 1395 1397 1398 1400 1404 1407 1409 1412 1415 1418 1423 1427 1432 1436 1441 1447 1453 1459 1464 1469 1474 1479 1484 1489 1492 1496 1501 1505 1507 1508 1511 1514 1516 1517 1518 1519 1519 1520 1520 1520 1520
1388 1389 1390 1391 1393 1395 1398 1401 1403 1407 1410 1415 1418 1421 1426 1431 1436 1442 1448 1454 1459 1464 1469 1474 1479 1484 1488 1492 1496 1500 1503 1505 1507 1509 1511 1513 1515 1515 1516 1517 1517 1517 1517
1384 1384 1385 1386 1388 1390 1393 1396 1399 1401 1405 1409 1413 1416 1420 1425 1431 1437 1443 1449 1454 1459 1464 1469 1474 1479 1483 1488 1492 1495 1498 1501 1503 1505 1507 1508 1510 1512 1513 1513 1513 1513 1513